ICEYE-X71

导读

ICEYE-X71(NORAD编号68494)是芬兰商业遥感公司ICEYE运营的合成孔径雷达(SAR)地球观测卫星,隶属于全球规模最大的商业SAR卫星星座。该卫星延续了ICEYE成熟的微小型SAR卫星技术路线,配备可灵活调控的电子扫描相控阵天线,支持聚束、条带、扩展驻留等多种成像模式,最高可实现分米级高分辨率成像,可持续对目标区域动态观测,捕捉移动目标特征。作为星座组网卫星,它运行于近地轨道,可不受光照、天气影响提供全天时全天候对地观测服务,服务于灾害监测、国家安全、资源勘探等军民商用领域,助力拓展全球商业遥感服务能力。

Basic Information
目录编号:
68494
目录名称:
ICEYE-X71
国际标识:
2026-067CG
轨道中心:
EARTH
卫星名称:
ICEYE-X71
卫星全名:
ICEYE-X71
卫星状态:
在轨 (已飞行166 天)
发射日期:
2026-03-30 UTC
国别 :
(FI)
星等 :
--
This satellite is enrolled in the Space Conjunction Data Service (SCDS) and the current flight risk assessment level is: No High Risk
Orbit Information
数据来源 国际轨道数据
星历时间: 2026-09-12T02:39:04+0800
12小时前
查看轨道信息
半长轴: 6952.234km
偏心率: 0.0003413
轨道倾角: 97.775°
近地点辐角 73.422°
升交点赤经 211.914°
平近点角 286.738°
近地点: 571.724km
远地点: 576.47km
周期: 96.149分钟
每日圈数: 14.976703
Detailed Information
使用方式:
暂无
2D Orbit Map
3D Orbit Map
Orbit Altitude Analysis Chart
Orbit Inclination Analysis Chart
Orbit Comprehensive Analysis Chart
View Comprehensive Chart
Conjunction Data List
Event ID Objects TCA Miss Dist (km) Collision Risk Probability Collision Risk Index (CRI) Action
CDM_260914-112106-480406-849421
2026-09-14T
11:21:58+0000
1.464 km
极远距离
7.306446E-6 低风险 0.52
CDM_260912-140805-565906-849421
2026-09-12T
14:08:37+0000
2.635 km
极远距离
1.60758E-6 低风险 0.39
CDM_260912-092006-217506-849422
2026-09-12T
09:20:11+0000
2.914 km
极远距离
1.389588E-6 低风险 0.38
CDM_260911-233304-435306-849421
2026-09-11T
23:33:58+0000
2.979 km
极远距离
1.196572E-6 低风险 0.37
Miss Distance Evolution Trend with All Objects
Collision Probability Evolution Trend with All Objects